Weather History for Fredericksburg, TX

Change the Weather History Date:

Saturday, August 17, 2013

  Actual Average (KSAT) Record (KSAT)
Temperature  
Mean Temperature 78 °F 86 °F  
Max Temperature 93 °F 96 °F 104 °F (1951)
Min Temperature 62 °F 75 °F 66 °F (1885)
Degree Days  
Heating Degree Days 0 0  
Month to date heating degree days 0  
Since 1 June heating degree days 0  
Since 1 July heating degree days 0  
Cooling Degree Days 12 21  
Month to date cooling degree days 357  
Year to date cooling degree days 2117  
Since 1 June cooling degree days 1488  
Growing Degree Days 28 (Base 50)    
Moisture  
Dew Point 57 °F    
Average Humidity 54    
Maximum Humidity 87    
Minimum Humidity 23    
Precipitation  
Precipitation 0.00 in 0.07 in 1.39 in (1967)
Month to date precipitation 0.88  
Year to date precipitation 19.73  
Snow  
Snow 0.00 in - - ()
Month to date snowfall  
Since 1 June snowfall  
Since 1 July snowfall  
Snow Depth -    
Sea Level Pressure  
Sea Level Pressure 30.05 in    
Wind  
Wind Speed 3 mph (NE)    
Max Wind Speed 14 mph    
Max Gust Speed 22 mph    
Visibility 10 miles    
Events      
T = Trace of Precipitation, MM = Missing Value Source: NWS Daily Summary

Daily Weather History Graph

Daily Weather History Graph

Search for Another Location

Airport:

Trip Planner

Search our weather history database for the weather conditions in past years. The results will help you decide how hot, cold, wet, or windy it might be!

Date:

Astronomy

Aug. 17, 2013 Rise Set
Actual Time 7:04 AM CDT 8:14 PM CDT
Civil Twilight 6:38 AM CDT 8:39 PM CDT
Nautical Twilight 6:09 AM CDT 9:09 PM CDT
Astronomical Twilight 5:38 AM CDT 9:40 PM CDT
Moon 5:24 PM CDT (8/17) 3:16 AM CDT (8/17)
Length of Visible Light 14h 00m
Length of Day
13h 10m
Waxing Gibbous, 84% of the Moon is Illuminated
Aug 17
Waxing Gibbous
Aug 20
Full
Aug 28
Last Quarter
Sep 5
New
Sep 12
First Quarter

Hourly Weather History & Observations

Time (CDT) Temp. Heat Index Dew Point Humidity Pressure Visibility Wind Dir Wind Speed Gust Speed Precip Events Conditions
12:15 AM 74.1 °F - 61.7 °F 65% 30.08 in 10.0 mi ENE 3.5 mph - N/A   Clear
12:35 AM 73.4 °F - 61.7 °F 67% 30.08 in 10.0 mi ENE 3.5 mph - N/A   Clear
12:55 AM 70.0 °F - 60.3 °F 71% 30.08 in 10.0 mi Calm Calm - N/A   Clear
1:15 AM 70.3 °F - 60.8 °F 72% 30.07 in 10.0 mi Calm Calm - N/A   Clear
1:35 AM 66.9 °F - 59.4 °F 77% 30.08 in 10.0 mi Calm Calm - N/A   Clear
1:55 AM 67.1 °F - 59.5 °F 77% 30.07 in 10.0 mi Calm Calm - N/A   Clear
2:15 AM 66.6 °F - 60.3 °F 80% 30.07 in 10.0 mi Calm Calm - N/A   Clear
2:35 AM 65.5 °F - 60.1 °F 83% 30.07 in 10.0 mi Calm Calm - N/A   Clear
2:55 AM 64.6 °F - 59.2 °F 83% 30.07 in 10.0 mi Calm Calm - N/A   Clear
3:15 AM 64.4 °F - 59.7 °F 85% 30.07 in 10.0 mi North 3.5 mph - N/A   Clear
3:35 AM 65.3 °F - 59.9 °F 83% 30.06 in 10.0 mi Calm Calm - N/A   Clear
3:55 AM 65.8 °F - 59.4 °F 80% 30.06 in 10.0 mi Calm Calm - N/A   Clear
4:15 AM 65.3 °F - 59.9 °F 83% 30.06 in 10.0 mi Calm Calm - N/A   Clear
4:35 AM 64.6 °F - 59.7 °F 84% 30.06 in 10.0 mi Calm Calm - N/A   Clear
4:55 AM 64.8 °F - 60.1 °F 85% 30.06 in 10.0 mi Calm Calm - N/A   Scattered Clouds
5:15 AM 63.5 °F - 59.5 °F 87% 30.06 in 10.0 mi Calm Calm - N/A   Clear
5:35 AM 64.2 °F - 59.7 °F 85% 30.06 in 10.0 mi WNW 3.5 mph - N/A   Clear
5:55 AM 63.7 °F - 59.5 °F 86% 30.06 in 10.0 mi Calm Calm - N/A   Clear
6:15 AM 63.1 °F - 59.4 °F 87% 30.06 in 10.0 mi Calm Calm - N/A   Clear
6:35 AM 63.3 °F - 59.4 °F 87% 30.07 in 10.0 mi West 3.5 mph - N/A   Clear
6:55 AM 63.5 °F - 59.5 °F 87% 30.07 in 10.0 mi Calm Calm - N/A   Clear
7:15 AM 62.2 °F - 58.5 °F 87% 30.08 in 10.0 mi Calm Calm - N/A   Scattered Clouds
7:35 AM 64.0 °F - 59.2 °F 84% 30.09 in 10.0 mi Calm Calm - N/A   Overcast
7:55 AM 65.3 °F - 59.5 °F 82% 30.09 in 10.0 mi Calm Calm - N/A   Overcast
8:15 AM 66.4 °F - 59.9 °F 80% 30.10 in 10.0 mi Calm Calm - N/A   Overcast
8:35 AM 68.7 °F - 61.7 °F 78% 30.10 in 10.0 mi Calm Calm - N/A   Overcast
8:55 AM 70.5 °F - 63.0 °F 77% 30.11 in 10.0 mi Calm Calm - N/A   Overcast
9:15 AM 71.4 °F - 65.3 °F 81% 30.11 in 10.0 mi Calm Calm - N/A   Overcast
9:35 AM 73.4 °F - 67.3 °F 81% 30.11 in 10.0 mi NE 4.6 mph - N/A   Overcast
9:55 AM 75.4 °F - 67.1 °F 75% 30.11 in 10.0 mi Calm Calm - N/A   Scattered Clouds
10:15 AM 76.5 °F - 67.3 °F 73% 30.10 in 10.0 mi Calm Calm - N/A   Clear
10:35 AM 79.0 °F - 67.3 °F 67% 30.11 in 10.0 mi Calm Calm - N/A   Clear
10:55 AM 79.9 °F - 66.4 °F 63% 30.11 in 10.0 mi Calm Calm - N/A   Clear
11:15 AM 82.6 °F 84.1 °F 64.2 °F 54% 30.10 in 10.0 mi Calm Calm - N/A   Scattered Clouds
11:35 AM 83.1 °F 84.6 °F 64.2 °F 53% 30.10 in 10.0 mi ENE 3.5 mph - N/A   Clear
11:55 AM 85.1 °F 86.1 °F 63.5 °F 48% 30.09 in 10.0 mi Calm Calm - N/A   Clear
12:15 PM 85.8 °F 85.9 °F 61.2 °F 43% 30.09 in 10.0 mi North 3.5 mph - N/A   Clear
12:35 PM 87.1 °F 86.1 °F 57.7 °F 37% 30.08 in 10.0 mi ENE 10.4 mph - N/A   Clear
12:55 PM 89.8 °F 87.5 °F 54.0 °F 29% 30.07 in 10.0 mi NE 8.1 mph 16.1 mph N/A   Clear
1:15 PM 90.7 °F 88.3 °F 53.8 °F 28% 30.06 in 10.0 mi East 8.1 mph - N/A   Clear
1:35 PM 91.6 °F - 50.4 °F 24% 30.06 in 10.0 mi NE 9.2 mph 16.1 mph N/A   Clear
1:55 PM 91.2 °F - 52.5 °F 27% 30.05 in 10.0 mi ENE 10.4 mph - N/A   Clear
2:15 PM 92.3 °F 89.7 °F 53.2 °F 26% 30.04 in 10.0 mi ENE 11.5 mph 16.1 mph N/A   Clear
2:35 PM 93.4 °F - 52.7 °F 25% 30.03 in 10.0 mi NE 9.2 mph - N/A   Clear
2:55 PM 92.8 °F 90.4 °F 53.1 °F 26% 30.03 in 10.0 mi NE 9.2 mph 18.4 mph N/A   Clear
3:15 PM 92.8 °F - 52.9 °F 26% 30.02 in 10.0 mi ENE 12.7 mph 18.4 mph N/A   Clear
3:35 PM 92.7 °F - 51.3 °F 24% 30.01 in 10.0 mi NE 11.5 mph 21.9 mph N/A   Clear
3:55 PM 92.8 °F - 52.7 °F 26% 30.01 in 10.0 mi NE 13.8 mph 20.7 mph N/A   Clear
4:15 PM 93.2 °F - 51.3 °F 24% 30.00 in 10.0 mi NNE 13.8 mph 17.3 mph N/A   Clear
4:35 PM 93.2 °F 90.8 °F 53.4 °F 26% 30.00 in 10.0 mi ENE 13.8 mph 18.4 mph N/A   Clear
4:55 PM 92.5 °F - 51.1 °F 24% 29.99 in 10.0 mi ENE 9.2 mph 17.3 mph N/A   Clear
5:15 PM 92.5 °F - 50.2 °F 24% 29.99 in 10.0 mi NE 11.5 mph 18.4 mph N/A   Clear
5:35 PM 92.5 °F - 49.3 °F 23% 29.99 in 10.0 mi NE 12.7 mph 18.4 mph N/A   Clear
5:55 PM 91.4 °F - 50.0 °F 24% 29.99 in 10.0 mi ENE 13.8 mph 20.7 mph N/A   Clear
6:15 PM 91.2 °F - 48.9 °F 23% 29.99 in 10.0 mi NE 9.2 mph - N/A   Clear
6:35 PM 90.5 °F - 49.5 °F 24% 29.99 in 10.0 mi NE 9.2 mph 16.1 mph N/A   Clear
6:55 PM 89.8 °F - 50.5 °F 26% 29.99 in 10.0 mi ENE 9.2 mph 17.3 mph N/A   Clear
7:15 PM 89.1 °F - 50.5 °F 27% 29.99 in 10.0 mi ENE 10.4 mph 17.3 mph N/A   Clear
7:35 PM 88.2 °F - 49.8 °F 27% 29.99 in 10.0 mi East 9.2 mph - N/A   Clear
7:55 PM 86.7 °F - 50.2 °F 28% 30.00 in 10.0 mi ENE 8.1 mph - N/A   Clear
8:15 PM 85.3 °F - 50.2 °F 30% 30.01 in 10.0 mi ENE 6.9 mph - N/A   Clear
8:35 PM 84.2 °F - 50.9 °F 32% 30.02 in 10.0 mi ENE 5.8 mph - N/A   Clear
8:55 PM 82.6 °F - 52.0 °F 35% 30.02 in 10.0 mi East 3.5 mph - N/A   Clear
9:15 PM 81.1 °F - 52.7 °F 37% 30.03 in 10.0 mi East 4.6 mph - N/A   Clear
9:35 PM 81.0 °F 80.5 °F 53.6 °F 39% 30.04 in 10.0 mi East 3.5 mph - N/A   Clear
9:55 PM 80.1 °F 80.0 °F 54.0 °F 40% 30.04 in 10.0 mi Calm Calm - N/A   Clear
10:15 PM 79.7 °F - 55.0 °F 43% 30.05 in 10.0 mi East 3.5 mph - N/A   Clear
10:35 PM 78.6 °F - 55.6 °F 45% 30.05 in 10.0 mi Calm Calm - N/A   Clear
10:55 PM 77.2 °F - 55.9 °F 48% 30.06 in 10.0 mi Calm Calm - N/A   Clear
11:15 PM 76.5 °F - 56.3 °F 50% 30.06 in 10.0 mi Calm Calm - N/A   Clear
11:35 PM 75.4 °F - 56.5 °F 52% 30.06 in 10.0 mi ENE 3.5 mph - N/A   Clear
11:55 PM 75.0 °F - 56.7 °F 53% 30.07 in 10.0 mi ENE 3.5 mph - N/A   Clear